When you browse on this site, cookies collect data to enhance your experience and personalize the content and advertising you see.
Visit our Privacy Policy to learn more. By continuing to use the site, you agree to this use of cookies and data.
  • In Hungary
  • List of Countries
  • For 7 days
  • Water Temperature
  • Satellite Maps
  • Weather Map
  • News
  • Weather Widgets
  • user-avatar
    Login

    Hourly Weather Granada

    Today, 16 January, Wednesday

    Time Temperature Precipitation Wind Pressure Humidity
    00:00 +26°C° 0 mm 6 mps 756 mmHg 77%
    01:00 +26°C° 0 mm 6 mps 756 mmHg 77%
    02:00 +26°C° 0 mm 6 mps 756 mmHg 78%
    03:00 +24°C° 0 mm 6 mps 756 mmHg 78%
    04:00 +25°C° 0 mm 5 mps 756 mmHg 78%
    05:00 +25°C° 0 mm 5 mps 756 mmHg 78%
    06:00 +25°C° 0 mm 5 mps 756 mmHg 78%
    07:00 +26°C° 0 mm 5 mps 757 mmHg 69%
    08:00 +28°C° 0 mm 6 mps 757 mmHg 60%
    09:00 +29°C° 0 mm 6 mps 757 mmHg 52%
    10:00 +32°C° 0 mm 6 mps 757 mmHg 47%
    11:00 +33°C° 0 mm 7 mps 757 mmHg 43%
    12:00 +35°C° 0 mm 7 mps 756 mmHg 38%
    13:00 +35°C° 0 mm 7 mps 755 mmHg 39%
    14:00 +35°C° 0 mm 7 mps 755 mmHg 39%
    15:00 +35°C° 0 mm 7 mps 754 mmHg 40%
    16:00 +34°C° 0 mm 7 mps 754 mmHg 45%
    17:00 +32°C° 0 mm 6 mps 754 mmHg 50%
    18:00 +30°C° 0 mm 6 mps 754 mmHg 56%
    19:00 +29°C° 0 mm 6 mps 755 mmHg 60%
    20:00 +29°C° 0 mm 6 mps 755 mmHg 64%
    21:00 +28°C° 0 mm 5 mps 756 mmHg 68%
    22:00 +28°C° 0 mm 6 mps 756 mmHg 69%
    23:00 +27°C° 0 mm 6 mps 756 mmHg 70%

    Tomorrow, 17 January, Thursday

    Time Temperature Precipitation Wind Pressure Humidity
    00:00 +27°C° 0 mm 6 mps 756 mmHg 71%
    01:00 +27°C° 0 mm 6 mps 756 mmHg 73%
    02:00 +26°C° 0 mm 6 mps 756 mmHg 75%
    03:00 +26°C° 0 mm 6 mps 756 mmHg 77%
    04:00 +26°C° 0 mm 5 mps 756 mmHg 78%
    05:00 +25°C° 0 mm 5 mps 756 mmHg 79%
    06:00 +25°C° 0 mm 5 mps 756 mmHg 80%
    07:00 +27°C° 0 mm 6 mps 756 mmHg 73%
    08:00 +28°C° 0 mm 6 mps 757 mmHg 66%
    09:00 +30°C° 0 mm 7 mps 757 mmHg 60%
    10:00 +32°C° 0 mm 7 mps 757 mmHg 56%
    11:00 +33°C° 0 mm 7 mps 756 mmHg 52%
    12:00 +34°C° 0 mm 7 mps 755 mmHg 48%
    13:00 +34°C° 0 mm 7 mps 755 mmHg 48%
    14:00 +34°C° 0 mm 7 mps 754 mmHg 47%
    15:00 +34°C° 0 mm 7 mps 753 mmHg 47%
    16:00 +33°C° 0 mm 7 mps 753 mmHg 52%
    17:00 +32°C° 0 mm 6 mps 754 mmHg 57%
    18:00 +30°C° 0 mm 6 mps 754 mmHg 61%
    19:00 +29°C° 0 mm 6 mps 754 mmHg 65%
    20:00 +28°C° 0 mm 6 mps 755 mmHg 69%
    21:00 +27°C° 0 mm 6 mps 756 mmHg 73%
    22:00 +27°C° 0 mm 6 mps 756 mmHg 75%
    23:00 +27°C° 0 mm 5 mps 756 mmHg 77%

    Day after tomorrow, 18 January, Friday

    Time Temperature Precipitation Wind Pressure Humidity
    00:00 +26°C° 0 mm 5 mps 756 mmHg 79%
    01:00 +26°C° 0 mm 5 mps 755 mmHg 80%
    02:00 +26°C° 0 mm 5 mps 755 mmHg 81%
    03:00 +25°C° 0 mm 5 mps 754 mmHg 82%
    04:00 +25°C° 0 mm 5 mps 755 mmHg 82%
    05:00 +25°C° 0 mm 5 mps 755 mmHg 82%
    06:00 +25°C° 0 mm 5 mps 755 mmHg 81%
    07:00 +27°C° 0 mm 5 mps 756 mmHg 74%
    08:00 +28°C° 0 mm 6 mps 756 mmHg 66%
    09:00 +30°C° 0 mm 7 mps 757 mmHg 58%
    10:00 +32°C° 0 mm 7 mps 756 mmHg 54%
    11:00 +33°C° 0 mm 7 mps 755 mmHg 49%
    12:00 +35°C° 0 mm 7 mps 755 mmHg 45%
    13:00 +35°C° 0 mm 7 mps 754 mmHg 45%
    14:00 +35°C° 0 mm 7 mps 753 mmHg 45%
    15:00 +35°C° 0 mm 7 mps 752 mmHg 46%
    16:00 +34°C° 0 mm 6 mps 753 mmHg 51%
    17:00 +32°C° 0 mm 6 mps 753 mmHg 56%
    18:00 +30°C° 0 mm 5 mps 753 mmHg 61%
    19:00 +29°C° 0 mm 5 mps 754 mmHg 64%
    20:00 +28°C° 0 mm 5 mps 755 mmHg 67%
    21:00 +27°C° 0 mm 5 mps 755 mmHg 71%
    22:00 +27°C° 0 mm 5 mps 755 mmHg 73%
    23:00 +27°C° 0 mm 5 mps 755 mmHg 74%

    19 January, Saturday

    Time Temperature Precipitation Wind Pressure Humidity
    00:00 +26°C° 0 mm 5 mps 755 mmHg 76%
    01:00 +26°C° 0 mm 5 mps 754 mmHg 78%
    02:00 +26°C° 0 mm 5 mps 754 mmHg 80%
    03:00 +25°C° 0 mm 4 mps 754 mmHg 82%
    04:00 +25°C° 0 mm 4 mps 754 mmHg 82%
    05:00 +25°C° 0 mm 4 mps 754 mmHg 82%
    06:00 +25°C° 0 mm 4 mps 754 mmHg 82%
    07:00 +27°C° 0 mm 5 mps 755 mmHg 74%
    08:00 +28°C° 0 mm 5 mps 755 mmHg 67%
    09:00 +30°C° 0 mm 5 mps 756 mmHg 60%
    10:00 +32°C° 0 mm 6 mps 755 mmHg 55%
    11:00 +33°C° 0 mm 6 mps 755 mmHg 50%
    12:00 +34°C° 0 mm 6 mps 754 mmHg 45%
    13:00 +35°C° 0 mm 6 mps 753 mmHg 45%
    14:00 +35°C° 0 mm 6 mps 752 mmHg 45%
    15:00 +35°C° 0 mm 6 mps 751 mmHg 44%
    16:00 +34°C° 0 mm 5 mps 752 mmHg 49%
    17:00 +33°C° 0 mm 5 mps 752 mmHg 54%
    18:00 +30°C° 0 mm 4 mps 752 mmHg 59%
    19:00 +29°C° 0 mm 4 mps 753 mmHg 63%
    20:00 +29°C° 0 mm 4 mps 754 mmHg 68%
    21:00 +28°C° 0 mm 4 mps 754 mmHg 73%
    22:00 +27°C° 0 mm 4 mps 755 mmHg 76%
    23:00 +27°C° 0 mm 3 mps 755 mmHg 79%

    20 January, Sunday

    Time Temperature Precipitation Wind Pressure Humidity
    00:00 +26°C° 0 mm 3 mps 755 mmHg 81%
    01:00 +26°C° 0 mm 3 mps 754 mmHg 83%
    02:00 +25°C° 0 mm 3 mps 754 mmHg 84%
    03:00 +25°C° 0 mm 3 mps 754 mmHg 86%
    04:00 +25°C° 0 mm 3 mps 754 mmHg 86%
    05:00 +25°C° 0 mm 2 mps 755 mmHg 86%
    06:00 +24°C° 0 mm 2 mps 755 mmHg 85%
    07:00 +27°C° 0 mm 3 mps 756 mmHg 76%
    08:00 +29°C° 0 mm 3 mps 756 mmHg 66%
    09:00 +32°C° 0 mm 4 mps 757 mmHg 56%
    10:00 +33°C° 0 mm 4 mps 756 mmHg 50%
    11:00 +35°C° 0 mm 5 mps 756 mmHg 44%
    12:00 +37°C° 0 mm 5 mps 755 mmHg 38%
    13:00 +37°C° 0 mm 5 mps 754 mmHg 36%
    14:00 +38°C° 0 mm 6 mps 753 mmHg 34%
    15:00 +38°C° 0 mm 6 mps 752 mmHg 32%
    16:00 +36°C° 0 mm 6 mps 753 mmHg 38%
    17:00 +34°C° 0 mm 5 mps 753 mmHg 44%
    18:00 +32°C° 0 mm 5 mps 753 mmHg 49%
    19:00 +30°C° 0 mm 5 mps 754 mmHg 56%
    20:00 +29°C° 0 mm 5 mps 755 mmHg 63%
    21:00 +28°C° 0 mm 5 mps 755 mmHg 70%
    22:00 +28°C° 0 mm 5 mps 755 mmHg 71%
    23:00 +27°C° 0 mm 6 mps 755 mmHg 72%

    21 January, Monday

    Time Temperature Precipitation Wind Pressure Humidity
    00:00 +27°C° 0 mm 6 mps 755 mmHg 74%
    01:00 +27°C° 0 mm 6 mps 755 mmHg 72%
    02:00 +26°C° 0 mm 6 mps 755 mmHg 70%
    03:00 +26°C° 0 mm 7 mps 754 mmHg 69%
    04:00 +26°C° 0 mm 7 mps 755 mmHg 67%
    05:00 +26°C° 0 mm 6 mps 755 mmHg 65%
    06:00 +26°C° 0 mm 6 mps 755 mmHg 64%
    07:00 +27°C° 0 mm 7 mps 756 mmHg 58%
    08:00 +28°C° 0 mm 8 mps 756 mmHg 53%
    09:00 +31°C° 0 mm 8 mps 757 mmHg 47%
    10:00 +32°C° 0 mm 8 mps 756 mmHg 45%
    11:00 +33°C° 0 mm 8 mps 756 mmHg 43%
    12:00 +34°C° 0 mm 8 mps 755 mmHg 40%
    13:00 +34°C° 0 mm 8 mps 754 mmHg 42%
    14:00 +34°C° 0 mm 8 mps 754 mmHg 43%
    15:00 +34°C° 0 mm 8 mps 753 mmHg 44%
    16:00 +32°C° 0 mm 8 mps 753 mmHg 48%
    17:00 +30°C° 0 mm 7 mps 754 mmHg 52%
    18:00 +29°C° 0 mm 7 mps 754 mmHg 57%
    19:00 +28°C° 0 mm 7 mps 754 mmHg 59%
    20:00 +27°C° 0 mm 7 mps 755 mmHg 61%
    21:00 +27°C° 0 mm 7 mps 756 mmHg 63%
    22:00 +26°C° 0 mm 7 mps 755 mmHg 63%
    23:00 +26°C° 0 mm 6 mps 755 mmHg 64%
    Show more